Location: Moonridge Observatory
(39.2268°N, 77.7914°W)
Time: 12:11:48
(UTC-04:00)

Amateur Radio Satellites - All Passes

Search period start: 30 August 2014 11:41
Search period end: 31 August 2014 11:41
Location: Moonridge Observatory, 39.2268°N, 77.7914°W

Satellite Date Start Highest point End Downlink Frequencies (MHz)
Time Altitude Azimuth
ISS 30 Aug 12:13:16 12:16:12 28° 332° (NNW) 12:19:08 145.800 FM
UKube-1 30 Aug 12:13:25 12:14:45 11° 298° (WNW) 12:16:06 145.840 MHz, 145.915 MHz
SO-50 30 Aug 12:15:48 12:19:47 25° 48° (NE) 12:23:47 436.795 FM
Oscar 11 30 Aug 12:19:13 12:21:34 14° 295° (WNW) 12:23:54 145.825 FM, Beacon 2401.500 USB
FUNcube-1 30 Aug 12:42:41 12:46:01 21° 293° (WNW) 12:49:23 145.950 - 145.970 MHz USB
HO-68 30 Aug 12:44:41 12:47:08 12° 309° (NW) 12:49:36 435.675 MHz FM
PANSAT 30 Aug 12:46:53 12:48:44 13° 169° (SSE) 12:50:35 not established
Oscar 16 30 Aug 12:47:49 12:51:30 20° 64° (ENE) 12:55:12 437.025 USB, Beacon 2401.1428
Uribyol 2 30 Aug 12:57:21 12:58:25 11° 59° (ENE) 12:59:30 436.500 FM
AO-27 30 Aug 13:14:04 13:17:01 16° 62° (ENE) 13:19:59 436.795 MHz FM
JAS-1B 30 Aug 13:16:57 13:24:54 31° 62° (ENE) 13:32:12 435.800 - 435.900 CW/SSB
Gurwin Techsat 1B 30 Aug 13:40:39 13:42:40 12° 60° (ENE) 13:44:40 435.225 FM
RS-15 30 Aug 13:48:17 13:55:09 18° 10° (N) 14:02:05 29.354 - 29.394 USB, Beacon 29.352 USB
MaSat-1 30 Aug 13:50:11 13:55:02 86° 113° (ESE) 14:00:14 437.345 MHz
Oscar 19 30 Aug 13:50:26 13:55:34 75° 75° (ENE) 14:00:45 437.125 CW, 437.150 USB
ISS 30 Aug 13:52:51 13:53:48 11° 351° (N) 13:54:45 145.800 FM
SO-50 30 Aug 13:55:58 14:00:29 42° 245° (WSW) 14:05:02 436.795 FM
UOSAT-12 30 Aug 14:17:57 14:22:09 31° 50° (NE) 14:26:18 437.025 FM, 437.400 FM
AO-Echo 30 Aug 14:21:17 14:26:20 71° 75° (ENE) 14:31:13 ?
ITAMSAT 1 30 Aug 14:21:54 14:27:00 66° 73° (ENE) 14:32:08 435.822 SSB
Oscar 16 30 Aug 14:25:29 14:30:27 49° 260° (W) 14:35:29 437.025 USB, Beacon 2401.1428
PANSAT 30 Aug 14:25:45 14:28:14 17° 182° (S) 14:30:44 not established
TMSAT-1 30 Aug 14:29:48 14:34:05 26° 66° (ENE) 14:38:21 436.925 FM
Uribyol 2 30 Aug 14:31:55 14:37:04 86° 76° (ENE) 14:42:16 436.500 FM
AO-27 30 Aug 14:50:50 14:55:58 66° 258° (WSW) 15:01:08 436.795 MHz FM
JAS-1B 30 Aug 15:04:56 15:14:46 71° 257° (WSW) 15:23:44 435.800 - 435.900 CW/SSB
Uosat F 30 Aug 15:14:46 15:16:50 13° 60° (ENE) 15:18:54 435.120 FM
Gurwin Techsat 1B 30 Aug 15:16:32 15:21:51 87° 256° (WSW) 15:27:12 435.225 FM
MaSat-1 30 Aug 15:30:04 15:32:48 15° 312° (NW) 15:35:36 437.345 MHz
ISS 30 Aug 15:30:25 15:31:45 12° 12° (NNE) 15:33:06 145.800 FM
Oscar 19 30 Aug 15:33:34 15:35:26 12° 270° (W) 15:37:19 437.125 CW, 437.150 USB
AO-7 30 Aug 15:45:21 15:53:06 45° 63° (ENE) 16:00:52 29.400 - 29.500 MHz
UOSAT-12 30 Aug 15:58:07 16:02:15 31° 247° (WSW) 16:06:20 437.025 FM, 437.400 FM
RS-15 30 Aug 16:01:40 16:11:52 40° 43° (NE) 16:22:21 29.354 - 29.394 USB, Beacon 29.352 USB
AO-Echo 30 Aug 16:03:39 16:05:31 12° 269° (W) 16:07:22 ?
ITAMSAT 1 30 Aug 16:04:20 16:06:56 14° 269° (W) 16:09:32 435.822 SSB
PANSAT 30 Aug 16:06:32 16:07:43 11° 194° (SSW) 16:08:54 not established
Oscar 10/S400 30 Aug 16:08:41 16:24:04 23° 146° (SE) 16:39:00 145.825 - 145.975 CW/USB, Beacon 145.810 USB
TMSAT-1 30 Aug 16:08:52 16:13:46 39° 262° (W) 16:18:43 436.925 FM
OPAL 30 Aug 16:34:45 16:37:43 15° 93° (E) 16:40:40 ?
Sapphire 30 Aug 16:37:33 16:41:59 27° 108° (ESE) 16:46:26 437.095 MHz 1200 baud AX-25 AFSK
Uosat F 30 Aug 16:49:56 16:54:56 78° 257° (WSW) 16:59:58 435.120 FM
JAS-1B 30 Aug 17:01:43 17:06:16 14° 273° (W) 17:10:42 435.800 - 435.900 CW/SSB
PCSat 30 Aug 17:06:04 17:11:18 52° 113° (ESE) 17:16:33 145.825 MHz
ISS 30 Aug 17:06:08 17:09:15 36° 31° (NNE) 17:12:22 145.800 FM
AO-7 30 Aug 17:38:13 17:45:53 40° 261° (W) 17:53:36 29.400 - 29.500 MHz
JAS-2 30 Aug 17:39:58 17:45:33 37° 70° (ENE) 17:50:37 435.800 - 435.900 CW/SSB, 435.910 FM
Hamsat 30 Aug 18:07:16 18:11:30 60° 75° (ENE) 18:15:48 145.90 MHz
OPAL 30 Aug 18:11:49 18:16:59 63° 289° (WNW) 18:22:06 ?
RS-15 30 Aug 18:13:57 18:24:52 65° 246° (WSW) 18:36:16 29.354 - 29.394 USB, Beacon 29.352 USB
Sapphire 30 Aug 18:20:05 18:25:10 41° 305° (NW) 18:30:17 437.095 MHz 1200 baud AX-25 AFSK
ISS 30 Aug 18:43:07 18:45:52 24° 227° (SW) 18:48:37 145.800 FM
PCSat 30 Aug 18:50:44 18:55:01 23° 311° (NW) 18:59:19 145.825 MHz
SO-67 30 Aug 19:09:12 19:12:24 36° 74° (ENE) 19:15:37 435.3500 MHz FM
JAS-2 30 Aug 19:25:15 19:30:39 30° 263° (W) 19:35:34 435.800 - 435.900 CW/SSB, 435.910 FM
HO-68 30 Aug 19:36:46 19:40:52 16° 55° (NE) 19:44:57 435.675 MHz FM
Hamsat 30 Aug 19:46:39 19:47:51 11° 270° (W) 19:49:03 145.90 MHz
STRAND 1 30 Aug 19:55:14 20:00:20 68° 102° (ESE) 20:05:24 ?
RS-15 30 Aug 20:31:44 20:35:01 12° 264° (W) 20:38:21 29.354 - 29.394 USB, Beacon 29.352 USB
SO-67 30 Aug 20:44:34 20:45:36 11° 268° (W) 20:46:38 435.3500 MHz FM
HO-68 30 Aug 21:20:23 21:27:32 85° 73° (ENE) 21:34:43 435.675 MHz FM
UKube-1 30 Aug 21:29:12 21:33:24 50° 73° (ENE) 21:37:36 145.840 MHz, 145.915 MHz
Oscar 11 30 Aug 21:35:39 21:39:35 35° 71° (ENE) 21:43:33 145.825 FM, Beacon 2401.500 USB
STRAND 1 30 Aug 21:36:11 21:38:56 15° 298° (WNW) 21:41:41 ?
FUNcube-1 30 Aug 22:01:46 22:05:11 25° 69° (ENE) 22:08:40 145.950 - 145.970 MHz USB
MaSat-1 30 Aug 22:10:16 22:13:10 16° 49° (NE) 22:15:51 437.345 MHz
Saudisat 1A 30 Aug 22:19:54 22:23:34 26° 113° (ESE) 22:27:15 436.775 MHz
AO-40 30 Aug 22:23:25 01:31:19 36° 193° (SSW) 06:48:31 Beacon 2401.320
KITSAT 1 30 Aug 22:55:14 23:02:04 31° 106° (ESE) 23:08:54 435.175 FM
UKube-1 30 Aug 23:07:45 23:09:52 13° 268° (W) 23:12:00 145.840 MHz, 145.915 MHz
HO-68 30 Aug 23:12:00 23:16:01 16° 270° (W) 23:20:02 435.675 MHz FM
Oscar 11 30 Aug 23:12:46 23:15:51 19° 266° (W) 23:18:58 145.825 FM, Beacon 2401.500 USB
FUNcube-1 30 Aug 23:38:05 23:41:31 25° 265° (W) 23:45:01 145.950 - 145.970 MHz USB
MaSat-1 30 Aug 23:46:16 23:50:38 51° 251° (WSW) 23:54:23 437.345 MHz
Saudisat 1A 30 Aug 23:59:05 00:03:02 31° 309° (NW) 00:07:00 436.775 MHz
KITSAT 1 31 Aug 00:49:04 00:57:00 58° 305° (NW) 01:04:59 435.175 FM
Sapphire 31 Aug 01:26:17 01:30:15 20° 47° (NE) 01:34:11 437.095 MHz 1200 baud AX-25 AFSK
PCSat 31 Aug 01:55:10 02:00:07 34° 53° (NE) 02:05:01 145.825 MHz
Oscar 19 31 Aug 02:03:38 02:08:08 29° 96° (E) 02:12:35 437.125 CW, 437.150 USB
AO-Echo 31 Aug 02:30:19 02:34:01 23° 95° (E) 02:37:44 ?
ITAMSAT 1 31 Aug 02:36:28 02:40:43 25° 95° (E) 02:44:57 435.822 SSB
Oscar 16 31 Aug 02:38:04 02:43:15 65° 102° (ESE) 02:48:23 437.025 USB, Beacon 2401.1428
Uribyol 2 31 Aug 02:46:04 02:50:45 33° 97° (E) 02:55:25 436.500 FM
KITSAT 1 31 Aug 02:49:37 02:54:22 16° 329° (NNW) 02:59:07 435.175 FM
JAS-1B 31 Aug 02:54:37 03:00:35 35° 95° (E) 03:05:53 435.800 - 435.900 CW/SSB
AO-27 31 Aug 03:04:59 03:10:01 49° 100° (E) 03:15:01 436.795 MHz FM
Sapphire 31 Aug 03:08:45 03:14:08 64° 246° (WSW) 03:19:28 437.095 MHz 1200 baud AX-25 AFSK
Gurwin Techsat 1B 31 Aug 03:34:05 03:39:05 41° 98° (E) 03:44:04 435.225 FM
PCSat 31 Aug 03:38:40 03:43:27 32° 251° (WSW) 03:48:12 145.825 MHz
Oscar 19 31 Aug 03:42:50 03:47:26 33° 292° (WNW) 03:52:00 437.125 CW, 437.150 USB
OPAL 31 Aug 03:48:10 03:52:14 25° 64° (ENE) 03:56:21 ?
AO-7 31 Aug 03:51:04 03:54:20 13° 89° (E) 03:57:36 29.400 - 29.500 MHz
AO-Echo 31 Aug 04:08:39 04:12:51 33° 290° (WNW) 04:17:04 ?
SO-50 31 Aug 04:09:35 04:14:02 84° 120° (ESE) 04:18:37 436.795 FM
ITAMSAT 1 31 Aug 04:15:32 04:20:15 37° 291° (WNW) 04:24:59 435.822 SSB
Oscar 16 31 Aug 04:19:00 04:22:01 16° 298° (WNW) 04:25:02 437.025 USB, Beacon 2401.1428
TMSAT-1 31 Aug 04:25:17 04:30:37 89° 284° (WNW) 04:35:55 436.925 FM
Uribyol 2 31 Aug 04:25:42 04:30:06 29° 293° (WNW) 04:34:29 436.500 FM
UOSAT-12 31 Aug 04:32:04 04:32:39 10° 106° (ESE) 04:33:14 437.025 FM, 437.400 FM
JAS-1B 31 Aug 04:45:17 04:51:10 33° 297° (WNW) 04:56:24 435.800 - 435.900 CW/SSB
AO-27 31 Aug 04:45:26 04:49:09 20° 296° (WNW) 04:52:52 436.795 MHz FM
Uosat F 31 Aug 04:59:01 05:03:35 35° 98° (E) 05:08:07 435.120 FM
Oscar 10/S400 31 Aug 05:01:48 06:11:03 25° 249° (WSW) 08:57:51 145.825 - 145.975 CW/USB, Beacon 145.810 USB
Gurwin Techsat 1B 31 Aug 05:14:36 05:18:48 24° 294° (WNW) 05:22:59 435.225 FM
OPAL 31 Aug 05:26:12 05:30:53 38° 260° (W) 05:35:40 ?
STRAND 1 31 Aug 05:35:54 05:36:50 11° 59° (ENE) 05:37:45 ?
AO-7 31 Aug 05:40:01 05:48:21 76° 106° (ESE) 05:56:36 29.400 - 29.500 MHz
SO-50 31 Aug 05:52:54 05:55:14 14° 320° (NW) 05:57:36 436.795 FM
Hamsat 31 Aug 05:56:21 05:57:56 12° 90° (E) 05:59:31 145.90 MHz
UOSAT-12 31 Aug 06:07:28 06:12:04 80° 302° (WNW) 06:16:48 437.025 FM, 437.400 FM
TMSAT-1 31 Aug 06:08:05 06:09:43 11° 301° (WNW) 06:11:22 436.925 FM
RS-15 31 Aug 06:27:40 06:35:19 22° 101° (E) 06:42:50 29.354 - 29.394 USB, Beacon 29.352 USB
JAS-2 31 Aug 06:34:01 06:38:45 32° 98° (E) 06:43:48 435.800 - 435.900 CW/SSB, 435.910 FM
Uosat F 31 Aug 06:38:06 06:42:11 26° 294° (WNW) 06:46:16 435.120 FM
Saudisat 1A 31 Aug 06:47:34 06:50:43 19° 45° (NE) 06:53:51 436.775 MHz
KITSAT 1 31 Aug 06:49:08 06:54:01 17° 32° (NNE) 06:58:53 435.175 FM
STRAND 1 31 Aug 07:10:06 07:15:12 87° 76° (ENE) 07:20:20 ?
Hamsat 31 Aug 07:29:58 07:34:15 56° 286° (WNW) 07:38:27 145.90 MHz
AO-7 31 Aug 07:34:02 07:40:18 25° 305° (NW) 07:46:34 29.400 - 29.500 MHz
UOSAT-12 31 Aug 07:50:58 07:53:00 13° 321° (NW) 07:55:03 437.025 FM, 437.400 FM
SO-67 31 Aug 08:06:39 08:10:02 52° 100° (E) 08:13:24 435.3500 MHz FM
JAS-2 31 Aug 08:19:18 08:23:48 30° 292° (WNW) 08:28:35 435.800 - 435.900 CW/SSB, 435.910 FM
Saudisat 1A 31 Aug 08:26:18 08:30:35 51° 243° (WSW) 08:34:50 436.775 MHz
RS-15 31 Aug 08:35:03 08:46:11 87° 301° (WNW) 08:57:11 29.354 - 29.394 USB, Beacon 29.352 USB
KITSAT 1 31 Aug 08:43:18 08:51:18 60° 56° (NE) 08:59:13 435.175 FM
HO-68 31 Aug 08:51:19 08:55:30 16° 91° (E) 08:59:39 435.675 MHz FM
ISS 31 Aug 09:48:39 09:51:04 19° 131° (SE) 09:53:31 145.800 FM
HO-68 31 Aug 10:36:46 10:43:57 84° 287° (WNW) 10:51:07 435.675 MHz FM
KITSAT 1 31 Aug 10:39:29 10:46:10 30° 254° (WSW) 10:52:51 435.175 FM
RS-15 31 Aug 10:51:08 11:00:14 29° 327° (NNW) 11:09:22 29.354 - 29.394 USB, Beacon 29.352 USB
UKube-1 31 Aug 10:54:26 10:58:46 74° 285° (WNW) 11:03:05 145.840 MHz, 145.915 MHz
Oscar 11 31 Aug 10:59:55 11:04:19 84° 102° (ESE) 11:08:40 145.825 FM, Beacon 2401.500 USB
ISS 31 Aug 11:24:24 11:27:35 43° 327° (NNW) 11:30:48 145.800 FM
FUNcube-1 31 Aug 11:26:59 11:31:31 65° 101° (E) 11:36:05 145.950 - 145.970 MHz USB
